Temperature
22 22 23 23 27 28 27 27 28 28 28 27 27 27 27 27 26 25 20 19 19 19 19 19 19 19 19 19 19 18 18 18 18 18 18 18 18 18 18 18 18 18 18 18 18 18 18 18 18
22 22 22 25 28 28 27 28 28 28 27 26 26 27 27 26 23 21 19 19 19 19 19 18 19 19 19 19 18 18 18 18 18 18 18 18 18 18 18 18 18 18 18 18 18 18 18 18 18
22 23 24 28 28 28 27 28 28 28 27 27 27 26 26 25 23 21 20 19 19 19 18 19 19 19 19 19 18 18 18 18 18 18 18 18 18 18 18 17 17 18 18 18 18 17 17 17 18
22 23 26 29 28 28 28 29 28 28 27 26 27 27 25 22 22 21 19 19 19 18 18 18 19 19 19 19 18 18 18 18 18 18 18 18 18 18 17 17 17 17 18 18 17 17 17 17 17
22 26 28 28 28 28 29 29 28 28 28 27 27 27 25 22 21 20 19 19 19 19 18 18 19 19 19 19 18 18 18 18 18 18 18 18 18 17 17 17 17 18 18 18 17 17 17 17 17
24 27 28 28 28 28 29 28 28 28 28 27 27 27 25 21 20 20 19 19 19 19 18 18 19 19 19 19 18 18 18 18 18 18 18 18 17 17 17 17 17 18 18 18 17 17 17 17 17
26 27 28 28 27 28 29 28 29 29 28 27 27 27 25 22 21 20 20 19 19 19 18 18 18 18 19 18 18 18 18 18 18 18 18 17 17 17 17 17 17 18 18 17 17 17 17 17 17
24 27 27 28 27 28 29 28 28 28 28 26 26 27 26 23 21 20 20 20 19 19 18 18 18 18 18 18 18 18 18 18 18 17 17 17 17 17 17 17 17 18 18 17 17 16 16 16 17
23 27 27 28 28 28 28 28 28 27 27 26 26 26 25 23 21 20 20 19 19 19 18 19 18 18 18 18 18 18 18 18 18 17 17 17 16 16 16 16 17 17 17 17 16 16 16 16 17
25 27 28 28 28 29 28 28 28 27 28 27 26 25 23 23 22 21 21 21 20 19 19 19 19 18 18 17 18 18 17 18 17 17 16 17 16 16 16 16 17 17 17 17 16 16 16 16 16
26 27 27 27 27 28 28 28 27 28 28 28 27 26 24 23 22 22 22 22 21 20 19 19 19 18 18 18 18 18 18 17 17 17 16 17 16 16 16 16 16 16 16 16 16 16 16 16 16
26 27 27 27 27 27 28 28 28 28 28 28 28 27 25 24 24 23 23 22 21 21 20 19 19 19 18 18 18 18 18 17 17 17 17 17 17 17 16 16 16 16 16 16 16 16 16 16 16
26 27 26 26 26 27 27 28 28 28 28 27 27 26 25 25 25 24 23 22 22 21 20 19 19 19 19 18 18 18 18 18 17 17 17 17 16 17 16 16 16 16 16 16 16 16 16 16 16
26 26 26 26 27 27 28 28 27 28 27 27 27 27 26 26 25 25 24 23 22 22 21 20 19 19 19 18 18 18 18 17 17 17 17 17 17 16 16 16 16 16 16 16 16 16 16 16 16
24 26 27 27 27 27 27 28 28 28 27 27 27 27 27 26 25 25 25 23 23 22 21 20 20 19 19 19 18 18 17 17 17 17 17 17 17 16 16 16 16 16 16 16 16 16 16 16 15
25 26 26 27 27 27 27 27 29 27 27 28 28 28 26 26 25 25 24 24 23 22 22 21 20 20 19 19 18 18 18 17 17 17 17 17 17 17 16 16 16 16 16 16 16 16 16 16 15
25 26 26 27 26 27 27 27 28 27 27 27 27 27 27 26 25 25 24 23 22 22 21 21 20 20 20 19 19 18 18 17 17 17 17 17 17 17 16 16 16 16 16 16 16 16 16 16 15
25 25 26 26 25 25 26 26 28 27 27 27 27 27 27 27 26 24 23 23 22 22 21 20 20 20 19 19 19 18 18 18 17 17 17 16 16 16 16 16 16 16 16 16 16 16 16 15 15
24 24 25 25 24 24 25 26 26 27 27 27 27 28 28 27 25 23 23 23 22 22 21 20 20 19 19 19 19 19 18 18 18 17 17 17 16 16 16 16 16 16 16 16 16 16 15 15 15
23 23 24 24 23 23 24 24 26 26 27 27 27 27 27 26 24 23 22 22 22 22 21 20 19 19 19 19 19 19 18 18 17 17 17 17 16 16 16 16 16 16 16 16 16 16 15 15 15
21 21 22 22 22 22 22 23 25 26 27 26 25 25 25 24 24 23 22 22 22 21 21 20 19 19 19 18 18 18 18 18 17 17 17 17 17 16 16 16 16 16 16 16 16 16 16 15 15
20 21 21 21 21 21 22 22 25 26 26 27 26 25 24 23 23 23 22 22 21 21 21 20 20 19 19 18 18 18 17 17 17 17 17 17 17 16 16 16 16 16 16 16 16 16 16 15 15
20 19 19 19 19 20 21 21 24 26 26 27 26 25 23 23 23 22 22 21 21 21 21 20 19 19 19 18 18 17 17 16 16 16 16 16 16 16 16 16 16 16 16 16 16 16 15 15 15
20 19 19 19 20 20 22 22 24 26 26 26 26 24 23 23 23 22 21 21 21 21 21 20 20 19 19 18 17 17 16 16 16 16 16 16 16 16 16 16 16 16 16 16 16 16 15 15 15
21 20 19 20 20 21 23 23 24 26 26 26 25 25 23 23 22 22 22 21 21 21 20 20 20 19 19 18 17 17 16 16 16 16 16 16 16 16 16 16 16 16 16 15 15 15 15 15 15
22 22 20 20 21 22 22 23 25 26 25 24 24 24 24 23 22 22 22 21 21 20 20 20 19 19 18 18 17 17 16 16 15 15 15 15 15 15 15 15 15 15 15 15 15 15 15 15 15
23 22 23 22 22 22 23 24 25 26 26 25 25 24 24 23 23 22 22 21 21 20 20 20 19 18 18 18 17 17 16 16 15 15 15 15 15 15 15 15 15 15 15 14 14 14 14 14 14
23 23 22 22 21 22 23 23 24 25 25 25 26 25 24 24 24 23 22 21 21 21 20 20 19 18 18 17 17 17 16 15 15 15 15 15 15 15 15 15 15 14 14 14 14 14 14 14 14
22 21 22 22 22 21 21 23 24 24 24 24 25 25 24 24 24 23 22 22 21 21 21 20 20 18 18 17 17 16 16 16 15 15 15 15 15 15 15 15 14 14 14 14 14 14 14 14 14
20 21 20 19 20 20 20 22 24 24 24 24 24 23 23 23 23 23 22 22 22 22 21 21 20 19 18 18 17 16 16 16 15 15 15 15 15 15 15 15 14 14 14 14 14 13 13 13 13
Wind_Speed
3 2 2 3 3 4 8 5 3 4 4 5 5 4 5 6 4 3 6 10 11 13 13 14 12 12 12 12 12 13 12 12 11 11 10 10 11 11 13 13 12 10 9 7 5 5 6 8 8
3 2 3 3 2 5 6 4 3 4 5 5 4 3 4 5 5 6 8 9 11 12 13 13 13 12 12 11 12 12 12 11 11 11 11 10 11 11 12 12 11 10 8 7 6 6 8 9 9
2 3 3 2 2 5 5 3 3 4 5 1 2 3 4 4 4 6 8 11 12 12 12 12 12 12 11 11 11 12 12 11 11 11 11 10 11 11 11 11 11 10 8 7 7 7 9 9 9
3 3 2 2 4 4 2 3 2 5 4 1 1 3 4 4 3 6 11 11 11 11 11 13 12 12 11 11 11 12 12 12 11 12 11 11 11 11 11 11 11 10 9 7 7 7 8 9 9
2 2 3 4 4 3 2 1 2 4 2 2 1 3 4 4 5 8 11 10 10 11 10 12 12 12 12 12 12 13 13 13 12 12 11 11 11 11 11 11 11 9 8 7 6 5 7 8 9
2 2 4 5 4 3 2 2 3 2 2 3 1 3 4 5 6 9 10 9 9 10 10 12 13 11 12 12 13 14 14 13 13 13 12 11 11 11 11 11 10 9 8 7 5 5 6 8 9
2 2 4 5 4 3 2 1 1 2 2 3 1 2 4 6 8 10 10 8 8 9 9 9 13 13 12 12 13 14 14 14 14 13 12 11 11 11 11 11 10 9 8 7 6 6 9 10 9
2 2 5 5 5 3 2 1 0 2 1 3 2 1 4 8 11 10 9 8 8 8 8 8 9 10 12 13 14 14 15 14 14 13 12 11 11 11 11 11 10 10 9 8 8 10 11 10 9
2 4 6 6 5 3 3 2 2 1 4 4 3 1 5 12 13 11 9 8 8 7 8 8 8 9 10 11 13 14 14 14 14 13 13 12 11 12 11 11 11 11 10 9 10 11 11 9 9
3 5 4 3 4 2 3 1 3 4 4 5 6 5 6 13 13 12 11 11 10 10 9 8 8 9 9 9 11 11 12 13 12 12 12 10 9 8 10 13 11 11 11 11 11 10 7 2 6
4 4 2 3 4 3 3 3 3 3 3 4 7 9 11 13 13 12 11 10 10 10 10 9 8 8 8 7 8 8 9 10 10 11 11 8 9 9 9 10 12 11 10 10 10 7 4 5 6
4 4 4 3 3 4 4 3 4 6 3 3 4 7 12 14 15 14 12 11 10 10 10 10 9 9 9 8 7 7 7 8 8 9 11 9 7 7 8 7 9 9 7 7 6 5 6 6 6
8 5 4 4 4 6 5 6 5 7 5 4 5 8 12 13 13 13 12 12 12 12 11 11 10 10 9 8 6 7 7 7 9 8 9 10 8 8 8 8 7 7 7 7 5 5 6 6 6
4 6 6 6 7 6 8 8 6 7 6 7 9 11 12 12 13 12 13 13 13 13 13 12 12 11 10 9 8 7 7 7 7 8 9 10 9 8 8 8 8 7 7 6 5 6 5 5 6
4 7 9 8 7 6 6 11 11 7 6 9 10 11 11 12 12 13 12 12 13 13 13 13 13 13 12 10 9 7 7 8 8 8 10 11 10 10 9 9 9 8 8 7 5 6 5 6 6
5 8 12 8 5 5 8 13 6 3 6 9 10 11 11 12 13 12 11 11 11 12 13 13 12 13 13 11 10 8 8 8 8 8 9 11 12 12 10 9 9 9 8 6 5 5 6 6 6
8 12 14 9 4 4 8 12 6 3 5 8 10 12 13 12 12 11 10 11 11 12 13 14 15 14 14 12 10 9 8 8 8 9 9 11 12 13 11 9 9 11 8 6 6 6 6 7 6
10 11 12 12 3 4 8 11 9 6 7 10 11 12 13 13 11 7 7 9 10 11 13 14 14 14 13 11 10 8 8 8 8 8 9 12 12 13 11 9 10 10 8 7 7 8 7 7 7
9 11 13 9 3 6 10 12 12 11 10 12 13 13 13 12 7 5 5 5 7 8 10 11 12 13 12 10 10 9 9 9 8 8 11 12 13 13 12 9 10 9 9 9 9 8 9 8 8
9 11 12 8 4 6 12 16 16 15 15 14 13 12 12 10 8 7 6 5 4 4 5 7 10 11 12 11 10 7 8 8 8 8 10 12 14 14 12 12 9 9 7 9 10 10 9 9 9
8 9 9 8 6 5 9 14 16 16 14 12 12 11 9 9 10 9 7 5 4 3 3 4 6 8 10 11 8 6 6 6 8 9 9 10 12 13 12 11 9 8 8 8 10 11 13 10 11
7 4 5 6 6 5 4 9 11 12 14 13 12 10 10 10 10 9 7 6 4 4 3 4 5 6 8 10 10 10 8 8 9 8 8 9 11 12 12 11 9 8 7 7 9 11 11 11 11
3 2 3 5 6 8 8 9 10 9 11 10 7 8 11 13 12 10 8 6 5 4 4 4 5 6 7 9 9 10 8 7 6 7 8 9 10 11 12 11 10 10 9 8 9 10 12 11 11
5 1 3 4 5 8 11 10 9 6 5 4 2 7 12 13 12 10 8 6 5 5 4 5 5 5 6 7 8 9 8 8 7 8 8 8 7 8 11 10 10 10 10 10 9 9 11 11 12
9 5 3 4 5 6 4 7 7 5 5 6 5 8 13 13 12 10 10 8 7 6 5 5 6 6 6 6 7 7 7 8 8 8 8 8 7 7 10 10 11 10 10 10 9 9 10 12 12
10 11 7 4 5 3 5 7 4 4 5 6 4 8 13 13 11 11 10 9 8 8 7 6 6 6 6 6 5 5 6 6 6 7 7 8 7 8 9 11 11 11 11 11 10 8 9 9 11
8 11 11 11 12 9 7 6 7 6 3 1 4 9 12 12 11 11 10 9 9 9 9 9 8 7 7 7 6 6 6 6 6 7 7 6 6 6 8 10 10 10 11 12 11 8 9 8 9
7 6 6 7 7 9 8 8 6 4 4 1 3 7 9 9 10 10 10 10 10 10 10 10 9 9 8 8 7 6 6 6 6 6 7 7 7 7 8 9 10 10 11 11 11 9 9 8 7
4 5 7 7 6 6 5 2 2 5 6 5 3 2 4 6 7 8 9 10 10 10 11 11 11 11 9 9 8 8 7 7 7 6 6 6 6 7 8 9 9 10 10 10 10 10 10 9 7
3 4 5 6 6 4 4 4 3 5 6 8 8 8 8 7 7 7 8 9 10 11 12 12 12 12 11 9 8 8 7 7 7 7 7 7 7 7 8 9 9 9 10 10 10 9 10 10 9
Wind_Direction
245 279 252 249 207 95 75 75 66 70 68 69 62 45 35 27 0 34 115 145 143 148 154 159 163 158 154 154 158 159 156 152 148 144 140 139 140 139 136 130 125 120 115 106 93 77 72 69 66
309 284 251 248 161 96 82 81 78 59 100 113 89 47 38 58 54 101 135 143 149 151 157 158 158 160 157 157 159 161 158 155 151 146 142 140 139 137 136 134 129 125 124 120 107 95 92 82 76
277 273 268 208 113 75 85 81 81 113 137 143 78 46 32 52 90 125 137 146 151 151 157 150 159 161 160 159 159 158 157 155 152 146 141 139 136 134 135 133 129 125 125 123 113 105 102 93 85
269 238 240 199 117 89 78 97 133 149 158 131 57 83 77 62 91 123 139 150 149 153 157 151 162 162 161 160 157 157 156 153 149 144 139 138 135 132 130 127 122 119 121 118 110 109 109 101 93
265 251 194 157 126 114 126 113 168 171 154 130 75 66 87 89 98 129 147 152 154 155 155 152 162 163 163 160 156 155 154 151 147 143 140 137 134 130 126 122 117 115 117 118 112 109 114 107 100
249 234 192 165 138 132 133 149 188 207 159 149 142 75 89 114 132 143 150 159 155 155 157 152 159 165 165 159 156 154 152 150 147 145 142 136 132 131 126 117 115 117 119 121 113 106 121 111 104
282 223 196 173 161 161 130 148 239 233 187 152 145 75 109 142 145 151 152 156 153 156 161 160 161 166 166 160 156 154 152 150 148 147 144 136 132 131 124 116 117 120 122 120 108 108 114 101 93
308 222 191 191 188 168 138 167 318 243 161 124 184 49 103 152 154 156 154 156 157 161 165 166 160 166 165 162 159 156 153 151 148 145 140 135 132 130 127 129 122 126 123 114 106 105 103 90 81
263 233 215 201 200 174 160 171 128 170 157 165 186 58 84 141 156 162 163 168 167 168 173 174 166 168 162 161 156 159 155 152 151 147 144 156 154 145 149 115 126 126 118 112 109 103 99 103 98
234 241 226 201 207 187 172 179 156 178 180 183 180 166 144 158 170 176 178 179 178 178 178 178 176 170 170 162 156 167 162 162 169 159 159 166 151 141 124 122 129 122 117 116 110 115 136 177 100
227 251 223 207 211 217 197 186 192 208 195 196 190 183 174 178 186 191 190 184 181 180 176 182 179 177 175 167 165 169 165 169 176 163 161 160 152 148 146 147 145 142 151 129 131 153 86 71 72
237 245 245 217 192 220 222 208 204 221 222 190 195 178 183 192 196 199 196 189 185 185 182 183 186 179 186 178 171 176 171 173 173 173 169 165 167 168 158 161 154 156 145 131 130 103 89 74 86
236 249 241 240 236 241 242 236 239 232 226 211 201 197 201 206 207 203 199 195 194 191 190 190 191 190 187 180 179 187 183 180 178 175 179 174 171 175 164 163 164 162 148 150 133 122 100 88 79
260 266 264 255 244 240 244 243 235 236 215 208 209 211 214 216 217 209 203 203 202 200 195 193 195 195 193 186 188 189 186 188 188 180 190 182 177 177 170 168 167 166 165 150 148 127 119 100 89
260 259 250 241 243 240 245 245 237 234 214 217 218 220 225 227 224 224 216 213 211 207 204 198 199 197 198 197 191 189 194 191 195 189 196 191 182 181 178 174 170 174 173 167 153 135 132 116 112
236 243 245 230 231 226 232 249 235 196 224 234 234 231 230 234 234 231 227 224 220 216 214 204 199 201 198 197 193 194 198 197 198 195 199 198 190 188 181 180 178 178 178 174 161 162 157 141 137
233 243 244 227 209 232 233 250 234 207 245 252 246 242 237 237 237 235 231 230 228 222 220 213 206 204 198 193 194 200 199 198 204 200 199 204 197 192 188 189 186 183 184 184 180 173 175 156 147
248 248 245 237 231 265 245 251 259 263 263 266 264 253 241 237 234 229 226 230 229 226 225 222 214 208 196 189 191 194 203 201 205 207 203 204 204 201 196 193 196 189 190 187 188 178 182 164 166
265 255 253 251 283 276 260 265 272 279 277 270 265 257 246 236 219 205 201 206 215 221 226 223 219 209 195 188 188 192 199 199 202 207 209 204 208 205 203 202 202 195 198 194 194 184 183 178 172
247 249 254 255 280 282 277 277 277 276 275 274 271 265 247 226 202 184 178 173 183 197 215 217 214 209 200 194 192 196 199 203 202 202 211 208 209 208 206 208 206 204 205 197 197 189 187 183 185
253 259 268 275 299 275 287 277 267 265 264 263 259 258 246 214 196 175 169 160 155 158 175 193 202 202 200 193 187 182 184 194 199 202 205 209 212 210 207 207 206 205 206 199 196 196 194 191 198
263 291 287 289 284 280 268 284 272 267 263 258 254 237 217 195 182 171 170 163 153 138 142 163 175 186 190 188 191 193 199 207 212 207 200 201 208 210 208 202 199 195 201 201 202 207 205 201 201
250 352 326 301 284 278 256 268 277 264 262 262 248 219 195 182 177 173 172 160 149 140 141 146 153 168 181 192 197 207 217 222 218 209 203 203 207 211 208 201 196 194 196 200 203 212 212 208 209
174 131 303 270 266 263 253 247 274 258 266 283 252 194 181 176 177 175 169 166 161 154 151 149 154 158 175 190 200 210 215 212 210 209 208 204 201 205 208 199 197 198 196 197 200 210 214 217 217
195 207 246 241 224 249 243 247 263 288 298 292 267 191 177 178 182 184 183 185 186 182 175 166 161 162 172 189 201 205 208 213 216 216 212 207 202 204 208 199 198 196 195 192 192 203 212 219 222
215 219 229 254 256 249 205 243 264 302 302 296 243 188 179 185 192 195 197 197 199 198 193 186 178 171 172 183 193 203 197 210 217 218 217 213 213 213 206 202 199 194 189 185 185 194 205 215 223
234 226 239 258 268 271 249 242 269 268 288 295 176 180 188 195 200 205 206 206 208 206 202 197 190 184 180 183 183 195 199 206 211 214 215 217 219 212 206 204 199 193 188 184 180 185 193 205 217
256 268 231 233 251 251 248 244 252 282 328 340 179 186 195 207 213 214 214 213 214 212 206 199 197 194 189 187 186 187 200 206 215 214 213 214 214 208 202 203 200 193 190 187 184 182 185 193 204
227 222 244 246 256 261 255 206 42 7 3 353 327 262 243 238 236 228 223 220 216 211 203 198 197 197 193 193 191 191 196 200 207 214 216 213 211 206 206 204 202 197 189 186 184 182 180 186 195
254 249 237 247 247 256 271 264 9 349 352 350 338 327 308 288 271 255 240 228 219 213 205 201 198 196 194 195 194 196 195 197 206 209 208 208 207 206 207 206 205 200 191 184 182 182 184 185 191
Height
1503 1503 1503 1504 1502 1501 1507 1505 1501 1501 1501 1503 1504 1503 1503 1504 1506 1513 1514 1513 1515 1517 1518 1519 1521 1522 1524 1525 1527 1528 1530 1531 1532 1534 1534 1535 1535 1536 1537 1538 1538 1538 1539 1539 1539 1540 1540 1540 1540
1504 1503 1505 1504 1500 1508 1510 1503 1502 1501 1504 1506 1506 1505 1504 1506 1510 1512 1512 1513 1515 1517 1518 1520 1521 1522 1524 1525 1527 1529 1530 1531 1533 1534 1535 1536 1536 1537 1538 1538 1539 1539 1540 1540 1541 1541 1541 1541 1541
1504 1504 1506 1500 1501 1506 1508 1502 1501 1503 1505 1505 1505 1506 1506 1509 1512 1513 1513 1513 1516 1517 1519 1520 1521 1523 1524 1526 1527 1529 1530 1532 1533 1534 1535 1536 1537 1538 1538 1539 1539 1539 1540 1541 1542 1542 1543 1543 1542
1505 1506 1505 1500 1505 1503 1502 1500 1502 1503 1506 1506 1506 1506 1509 1512 1513 1513 1513 1515 1517 1518 1519 1520 1521 1523 1524 1526 1527 1529 1531 1532 1533 1535 1535 1537 1538 1538 1539 1539 1540 1540 1541 1542 1543 1544 1544 1543 1543
1505 1505 1502 1503 1504 1501 1501 1501 1502 1502 1504 1506 1506 1506 1509 1513 1512 1513 1514 1516 1518 1519 1520 1520 1521 1523 1524 1526 1527 1529 1531 1532 1534 1535 1536 1537 1538 1539 1539 1540 1540 1541 1542 1543 1543 1544 1545 1544 1544
1507 1502 1503 1507 1505 1502 1500 1502 1502 1502 1504 1506 1507 1506 1510 1513 1513 1514 1515 1516 1518 1519 1520 1521 1521 1523 1524 1526 1527 1529 1531 1532 1534 1535 1536 1537 1539 1539 1540 1540 1541 1542 1542 1543 1544 1545 1545 1545 1545
1507 1502 1503 1504 1506 1504 1502 1503 1501 1502 1503 1505 1507 1506 1510 1513 1513 1514 1516 1517 1519 1520 1521 1522 1522 1523 1524 1526 1528 1529 1531 1532 1534 1535 1537 1538 1539 1540 1541 1541 1542 1542 1543 1544 1545 1546 1546 1546 1545
1507 1503 1504 1503 1506 1504 1502 1503 1504 1503 1504 1507 1508 1506 1509 1513 1513 1515 1516 1518 1519 1520 1521 1523 1524 1524 1525 1526 1528 1529 1531 1533 1534 1536 1537 1539 1540 1541 1541 1542 1543 1543 1544 1545 1547 1547 1547 1547 1546
1507 1505 1504 1503 1504 1502 1502 1503 1504 1505 1505 1508 1508 1509 1510 1511 1512 1514 1516 1517 1519 1520 1521 1523 1524 1525 1526 1527 1527 1529 1531 1532 1534 1536 1537 1539 1542 1543 1543 1543 1544 1545 1546 1547 1548 1548 1548 1548 1547
1507 1504 1501 1500 1500 1500 1502 1502 1504 1504 1504 1506 1507 1509 1509 1511 1512 1514 1515 1517 1518 1520 1521 1523 1524 1525 1526 1527 1528 1529 1531 1532 1535 1537 1538 1541 1543 1544 1545 1543 1545 1546 1547 1548 1549 1550 1550 1550 1550
1504 1502 1500 1501 1502 1502 1502 1503 1504 1503 1503 1503 1505 1507 1509 1510 1512 1513 1515 1516 1518 1520 1521 1522 1524 1525 1526 1527 1528 1529 1531 1532 1535 1538 1538 1541 1542 1543 1545 1546 1546 1548 1549 1551 1550 1552 1553 1552 1551
1503 1501 1501 1501 1502 1502 1501 1502 1503 1502 1502 1502 1503 1505 1507 1509 1510 1511 1513 1516 1517 1519 1520 1521 1523 1524 1526 1527 1528 1530 1531 1533 1535 1537 1539 1540 1542 1544 1545 1547 1548 1550 1551 1552 1553 1553 1553 1553 1553
1502 1500 1501 1501 1502 1501 1501 1501 1501 1501 1502 1502 1503 1505 1506 1507 1508 1511 1512 1514 1516 1517 1518 1520 1521 1524 1525 1527 1527 1529 1531 1533 1534 1535 1538 1539 1540 1543 1544 1546 1548 1550 1552 1553 1553 1555 1554 1555 1555
1501 1501 1500 1500 1499 1499 1499 1498 1500 1498 1500 1501 1502 1503 1504 1505 1507 1508 1510 1512 1514 1515 1517 1518 1520 1522 1524 1525 1526 1528 1530 1531 1533 1534 1536 1539 1540 1542 1543 1545 1547 1550 1552 1553 1554 1555 1555 1556 1556
1502 1500 1497 1497 1497 1496 1498 1496 1494 1495 1498 1498 1499 1500 1501 1503 1504 1506 1508 1510 1512 1514 1515 1517 1518 1520 1521 1524 1525 1527 1528 1530 1532 1533 1535 1538 1539 1541 1542 1545 1546 1549 1551 1552 1554 1555 1556 1556 1556
1499 1498 1498 1493 1495 1495 1498 1496 1489 1494 1495 1495 1496 1496 1499 1500 1501 1503 1505 1507 1509 1511 1512 1514 1514 1516 1519 1521 1522 1525 1527 1528 1530 1531 1533 1536 1538 1540 1542 1544 1546 1548 1550 1552 1552 1554 1556 1556 1557
1498 1497 1494 1492 1493 1492 1493 1491 1488 1492 1492 1492 1493 1493 1495 1496 1498 1499 1501 1503 1505 1506 1508 1510 1511 1513 1515 1517 1519 1522 1524 1525 1527 1529 1531 1534 1536 1538 1540 1542 1544 1547 1548 1550 1551 1553 1555 1556 1557
1499 1495 1493 1492 1492 1493 1491 1489 1487 1488 1490 1489 1489 1489 1490 1492 1494 1495 1496 1498 1500 1502 1504 1506 1508 1509 1511 1513 1515 1518 1520 1522 1524 1526 1528 1531 1534 1536 1539 1540 1543 1545 1546 1548 1549 1551 1553 1555 1556
1496 1496 1495 1491 1494 1494 1491 1488 1485 1485 1485 1485 1484 1484 1485 1487 1490 1491 1492 1494 1496 1497 1499 1501 1503 1505 1506 1508 1510 1513 1516 1518 1520 1523 1525 1527 1530 1533 1536 1538 1540 1542 1543 1545 1547 1549 1551 1553 1555
1498 1498 1496 1493 1495 1494 1491 1487 1482 1481 1480 1480 1480 1480 1481 1484 1487 1489 1490 1492 1493 1494 1495 1496 1498 1500 1501 1503 1506 1509 1512 1514 1516 1519 1521 1524 1526 1529 1531 1534 1536 1538 1540 1542 1544 1546 1548 1551 1553
1502 1502 1501 1501 1497 1495 1495 1489 1480 1475 1475 1476 1477 1478 1480 1482 1484 1487 1488 1490 1491 1492 1492 1493 1494 1495 1497 1499 1501 1504 1507 1509 1512 1514 1517 1519 1522 1525 1527 1529 1532 1534 1536 1538 1541 1543 1545 1547 1550
1505 1502 1503 1503 1503 1501 1499 1498 1479 1471 1470 1470 1472 1474 1476 1479 1482 1484 1487 1488 1490 1490 1490 1491 1492 1493 1494 1495 1497 1500 1503 1505 1508 1510 1513 1515 1517 1520 1522 1524 1527 1529 1532 1535 1537 1539 1542 1545 1547
1505 1504 1506 1506 1507 1506 1499 1500 1480 1468 1468 1465 1466 1470 1473 1476 1480 1483 1485 1487 1488 1489 1490 1490 1490 1491 1492 1493 1495 1498 1500 1502 1504 1506 1508 1510 1512 1514 1517 1519 1522 1524 1527 1530 1533 1535 1538 1541 1544
1500 1506 1507 1506 1507 1509 1494 1494 1483 1465 1464 1463 1465 1468 1471 1475 1479 1482 1484 1486 1487 1488 1489 1489 1490 1490 1491 1492 1494 1495 1498 1499 1500 1502 1504 1506 1508 1509 1512 1514 1517 1519 1522 1525 1528 1531 1534 1537 1540
1497 1505 1513 1511 1510 1502 1486 1487 1476 1461 1461 1463 1464 1466 1470 1474 1477 1480 1483 1485 1486 1487 1488 1488 1489 1489 1490 1491 1493 1494 1495 1497 1498 1499 1501 1502 1503 1505 1507 1510 1512 1514 1517 1520 1523 1526 1529 1533 1536
1490 1495 1507 1511 1503 1491 1486 1484 1467 1460 1462 1462 1463 1465 1468 1472 1476 1479 1481 1483 1485 1486 1486 1487 1488 1488 1489 1490 1491 1493 1494 1494 1496 1497 1498 1499 1501 1502 1504 1506 1508 1510 1512 1515 1517 1520 1524 1528 1531
1486 1488 1485 1492 1488 1491 1480 1472 1464 1458 1460 1461 1462 1465 1468 1471 1474 1477 1479 1481 1482 1484 1485 1486 1487 1487 1488 1489 1490 1491 1492 1493 1494 1495 1496 1497 1499 1500 1501 1503 1505 1507 1508 1511 1513 1515 1519 1523 1526
1482 1480 1485 1490 1493 1492 1481 1476 1470 1461 1461 1461 1462 1464 1467 1470 1473 1475 1477 1478 1480 1481 1482 1483 1484 1485 1486 1487 1488 1489 1490 1491 1492 1494 1494 1496 1497 1498 1499 1501 1502 1504 1505 1507 1509 1511 1514 1518 1522
1483 1485 1484 1481 1481 1488 1489 1480 1464 1466 1465 1464 1464 1466 1468 1469 1471 1472 1474 1475 1476 1477 1479 1480 1481 1483 1484 1486 1487 1487 1488 1489 1490 1492 1493 1494 1495 1496 1498 1499 1500 1502 1503 1504 1506 1508 1510 1514 1517
1483 1482 1485 1493 1490 1487 1490 1482 1463 1466 1466 1467 1467 1467 1468 1468 1469 1469 1470 1471 1472 1473 1475 1476 1478 1480 1481 1483 1484 1485 1486 1487 1488 1490 1491 1492 1494 1495 1496 1497 1499 1500 1501 1502 1504 1506 1508 1511 1514